Regional Weather Roundup
Issued by NWS

Home | Current Version | Previous Version | Text Only | Print | Product List | Glossary On
Versions: 1 2 3 4 5 6 7 8 9 10 11 12 13 14 15 16 17 18 19 20 21 22 23 24 25 26 27 28 29 30 31 32 33 34 35 36 37 38 39 40 41 42 43 44 45 46 47 48 49 50
604
ASUS43 KDTX 290510
RWRMI
MICHIGAN HOURLY REGIONAL WEATHER ROUNDUP
NATIONAL WEATHER SERVICE DETROIT/PONTIAC MI
100 AM EDT FRI APR 29 2016

NOTE: "FAIR" INDICATES FEW OR NO CLOUDS BELOW 12,000 FEET WITH NO
SIGNIFICANT WEATHER AND/OR OBSTRUCTION TO VISIBILITY.

MIZ047>049-052>055-059>063-066>070-074>076-081>083-290600-
SOUTHEAST LOWER MICHIGAN

CITY           SKY/WX    TMP DP  RH WIND       PRES   REMARKS
ADRIAN         CLOUDY    46  35  65 NE6       30.01S
ALMA           CLOUDY    40  34  81 NE6       30.07R
ANN ARBOR      CLOUDY    46  30  53 NE6       30.01S
BAD AXE        CLOUDY    39  33  78 CALM      30.06S
CARO           CLOUDY    40  33  76 N3        30.04F
DETROIT CITY   CLOUDY    46  30  53 NE6       30.03R
DETROIT        LGT RAIN  48  32  53 N5        30.02R
FLINT          CLOUDY    45  30  55 NE8       30.05R
GROSSE ILE     LGT RAIN  46  39  76 CALM      30.00S
HILLSDALE      CLOUDY    45  33  63 CALM      30.00R
HOWELL         CLOUDY    45  29  53 NE5       30.03R

CITY           SKY/WX    TMP DP  RH WIND       PRES   REMARKS
JACKSON        LGT RAIN  45  37  73 NE5       30.01S
LAMBERTVILLE   CLOUDY    49  36  61 E6        30.00S
LANSING        CLOUDY    42  35  76 NE8       30.04S
LAPEER         CLOUDY    41  32  70 CALM      30.04S
MASON          CLOUDY    44  32  63 NE8       30.03S
MONROE         CLOUDY    47  36  66 NE3       30.00S
MT. CLEMENS    CLOUDY    44  32  63 N8        30.02R
PONTIAC        CLOUDY    44  28  53 NE8       30.02R
PORT HOPE        N/A     41  35  79 E10       30.05S
PORT HURON     CLOUDY    43  34  70 N3        30.03S
TRI CITIES     CLOUDY    43  33  68 NE6       30.07S
MIDLAND        DRIZZLE   40  32  74 NE3       30.06F
TROY           CLOUDY    46  30  54 NE6       30.04S
SAGINAW HB     CLOUDY    41  32  70 N3        30.06S
$$
MIZ043>046-050>051-056>058-064>065-071>073-077>080-290600-
SOUTHWEST LOWER MICHIGAN

CITY           SKY/WX    TMP DP  RH WIND       PRES   REMARKS
BATTLE CREEK   CLOUDY    45  38  76 NE7       30.02S
BENTON HARBOR  CLOUDY    47  39  74 E8        30.00S
BIG RAPIDS     CLOUDY    40  29  63 E6        30.05S
COLDWATER      CLOUDY    46  37  73 E5        30.00F
FREMONT        CLOUDY    40  33  75 E6        30.05R
HOLLAND        LGT RAIN  44  38  79 E8        30.03R
GRAND RAPIDS   CLOUDY    42  36  79 E8        30.03F
IONIA          CLOUDY    40  34  79 NE6       30.03F
KALAMAZOO      CLOUDY    47  34  60 E3        30.01S
LUDINGTON      CLOUDY    42  32  68 E6        30.06F
MARSHALL       CLOUDY    45  36  71 CALM      30.01S
MOUNT PLEASANT CLOUDY    39  32  76 NE3       30.06S
MUSKEGON       CLOUDY    43  34  70 E10       30.04S
SOUTH HAVEN    CLOUDY    46  40  80 E5        30.01S
$$
MIZ016>042-290600-
NORTHERN LOWER MICHIGAN

CITY           SKY/WX    TMP DP  RH WIND       PRES   REMARKS
ALPENA         PTCLDY    36  27  69 CALM      30.10S
BEAVER ISLAND  MOCLDY    38  23  54 E3        30.10S
BELLAIRE       CLOUDY    45  24  44 CALM      30.08S
CADILLAC       DRIZZLE   38  34  83 E5        30.04F WCI  35
CHARLEVOIX     CLOUDY    42  23  46 NE5       30.12S
FRANKFORT      CLOUDY    44  32  63 E6        30.08S
GAYLORD        CLOUDY    42  16  34 E5        30.07R
GRAYLING       CLOUDY    41  20  42 E6        30.08S
HARBOR SPRINGS CLOUDY    36  21  55 CALM      30.10R
HOUGHTON LAKE  CLOUDY    40  25  55 E5        30.06F
MANISTEE       CLOUDY    43  28  56 CALM      30.08R
OSCODA         CLOUDY    43  29  58 NE6       30.07S
PELLSTON       CLOUDY    33  26  75 CALM      30.10S
ROGERS CITY    CLOUDY    31  29  91 CALM      30.11S
TRAVERSE CITY  CLOUDY    43  37  79 CALM      30.06F
$$
MIZ007>008-015-290600-
EASTERN UPPER MICHIGAN

CITY           SKY/WX    TMP DP  RH WIND       PRES   REMARKS
KINROSS          N/A     36  30  80 CALM      30.11S
MACKINAC ISLAN PTCLDY    38  22  53 NE8       30.10S WCI  32
NEWBERRY       PTCLDY    36  31  83 CALM      30.11S
S. S. MARIE    CLEAR     36  30  79 CALM      30.11S
MUNISING         N/A     37  33  85 NW5       30.12S WCI  33
$$
MIZ004>006-011>014-085-290600-
CENTRAL UPPER MICHIGAN

CITY           SKY/WX    TMP DP  RH WIND       PRES   REMARKS
MANISTIQUE     PTCLDY    37  28  70 N6        30.10S WCI  32
ESCANABA       CLOUDY    43  27  52 N3        30.10S
MENOMINEE      CLOUDY    43  28  56 NE9       30.09R
SAWYER-GWINN   CLOUDY    33  28  80 N6        30.09S WCI  28
$$
MIZ001>003-009>011-084-290600-
WESTERN UPPER MICHIGAN

CITY           SKY/WX    TMP DP  RH WIND       PRES   REMARKS
IRON MOUNTAIN  CLOUDY    40  25  55 N3        30.09S
HOUGHTON       PTCLDY    30  26  85 CALM      30.12S
COPPER HARBOR    N/A     33  28  81 W7        30.13F WCI  27
IRONWOOD       MOCLDY    36  28  75 NE5       30.08S WCI  32
$$

ABBREVIATIONS USED IN REMARKS
   TC - TEMPERATURE IN CELSIUS
  WCI - WIND CHILL INDEX
   HX - HEAT INDEX
  VSB - VISIBILITY





USA.gov is the U.S. government's official web portal to all federal, state and local government web resources and services.